#timestamp,LO_Frequency,Hit,StdDev 
1523253615.7,286046999.1,N
1523253635.5,286046996.6,N
1523253655.4,286046997.5,N
1523253675.2,286046997.6,N
1523253695.1,286046997.1,N
1523253696.0,286046997.1,N
1523253715.8,286046997.4,N
1523253735.6,286046997.4,N
1523253755.5,286046999.1,N
1523253775.3,286046999.6,N
1523253795.1,286046999.1,N
1523253815.9,286046999.3,N
1523253835.7,286046999.6,N
1523253855.6,286046999.1,N
1523253875.4,286046997.5,N
1523253895.2,286046997.4,N
1523253915.1,286046997.8,N
1523253916.0,286046997.8,N
1523253935.8,286046995.3,Y
1523253955.7,286047001.0,P
1523253975.5,286047000.5,N
1523253995.3,286047000.0,N
1523254015.2,286046998.5,N
1523254035.0,286047000.4,N
1523254035.9,286047000.4,N
1523254055.8,286046999.7,N
1523254075.6,286046999.9,N
1523254095.4,286046999.9,N
1523254115.3,286047001.1,N
1523254135.1,286047000.6,N
1523254155.9,286047000.8,N
1523254175.7,286046998.6,N
1523254195.5,286047001.2,N
1523254215.4,286047001.0,N
1523254235.2,286046998.2,N
1523254255.1,286046998.5,N
1523254256.0,286046998.5,N
1523254275.8,286046998.9,N
1523254295.6,286046999.3,N
1523254315.5,286046999.6,N
1523254335.3,286046998.6,N
1523254355.1,286046999.4,N
1523254375.9,286046996.9,Y
1523254395.7,286046996.9,P
1523254415.6,286046997.4,N
1523254435.4,286046997.2,N
1523254455.2,286046996.7,N
1523254475.1,286046998.7,N
1523254476.0,286046998.7,N
1523254495.8,286046999.5,N
1523254515.6,286046997.7,N
1523254535.5,286046996.5,Y
1523254555.3,286047000.5,P
1523254575.2,286047000.6,N
1523254595.9,286047000.0,N
1523254615.7,286047001.0,N
1523254635.6,286047001.0,N
1523254655.4,286046999.9,N
1523254675.2,286047001.0,N
1523254695.1,286047001.1,N
1523254696.0,286047001.1,N
1523254715.8,286047000.8,N
1523254735.7,286047001.2,N
1523254755.5,286047001.2,N
1523254775.3,286047000.9,N
1523254795.2,286046998.8,N
1523254815.0,286046999.5,N
1523254815.9,286046999.5,N
1523254835.8,286046996.8,Y
1523254855.6,286046996.9,P
1523254875.4,286046998.8,N
1523254895.3,286046999.1,N
1523254915.1,286046998.8,N
1523254935.8,286046999.0,N
1523254955.7,286046996.5,Y
1523254975.5,286046998.6,P
1523254995.4,286046998.8,P
1523255015.2,286046999.1,P
1523255035.0,286046999.1,Y
1523255035.9,286046999.1,P
1523255055.8,286047000.2,N
1523255075.6,286046999.7,N
1523255095.5,286046999.7,N
1523255115.3,286047000.0,N
1523255135.1,286047001.4,N
1523255155.9,286047004.3,Y
1523255175.7,286047002.2,P
1523255195.6,286047002.4,N
1523255215.4,286047000.6,N
1523255235.2,286046999.8,N
1523255255.1,286047001.1,N
1523255256.0,286047001.1,N
1523255275.8,286046998.1,N
1523255295.6,286047001.0,N
1523255315.5,286047002.0,N
1523255335.3,286047002.6,N
1523255355.2,286047002.8,N
1523255375.9,286047000.9,N
1523255395.7,286047002.3,N
1523255415.6,286047001.8,N
1523255435.4,286047002.8,N
1523255455.3,286047000.1,N
1523255475.1,286047002.7,N
1523255476.0,286047002.7,N
1523255495.8,286047002.3,N
1523255515.7,286046999.9,N
1523255535.5,286047001.1,N
1523255555.3,286047000.4,N
1523255575.2,286047000.0,N
1523255595.0,286047002.5,N
1523255595.9,286047002.5,N
1523255615.8,286047002.6,N
1523255635.6,286047002.7,N
1523255655.4,286047001.1,N
1523255675.3,286046998.1,N
1523255695.1,286047000.0,N
1523255715.8,286047000.4,N
1523255735.7,286047002.7,N
1523255755.5,286047002.6,N
1523255775.4,286047001.9,N
1523255795.2,286047002.0,N
1523255815.0,286047001.7,N
1523255815.9,286047001.7,N
1523255835.8,286047003.7,Y
1523255855.6,286047001.3,P
1523255875.5,286047001.7,P
1523255895.3,286047002.6,P
1523255915.1,286047002.6,Y
1523255935.9,286046999.2,P
1523255955.7,286046998.7,N
1523255975.6,286046999.0,N
1523255995.4,286046998.2,N
1523256015.2,286046998.8,N
1523256035.1,286046997.8,N
1523256036.0,286046997.8,N
1523256055.8,286046996.7,N
1523256075.6,286046996.9,N
1523256095.5,286046998.4,N
1523256115.3,286046998.7,N
1523256135.2,286046999.3,N
1523256155.9,286046996.8,N
1523256175.7,286046996.8,N
1523256195.6,286046996.7,N
1523256215.4,286046998.4,N
1523256235.2,286046995.4,Y
1523256255.1,286046997.3,P
1523256256.0,286046997.3,P
1523256275.8,286046999.2,N
1523256295.7,286046999.4,N
1523256315.5,286046998.8,N
1523256335.3,286046998.8,N
1523256355.2,286046998.2,N
1523256375.0,286046996.9,Y
1523256375.9,286046996.9,P
1523256395.8,286047000.5,N
1523256415.6,286047000.0,N
1523256435.4,286047001.2,N
1523256455.3,286047000.0,N
1523256475.1,286046999.9,N
1523256495.8,286047002.0,N
1523256515.7,286047002.1,N
1523256535.5,286047004.2,N
1523256555.4,286047003.2,N
1523256575.2,286047006.0,N
1523256595.0,286047004.2,N
1523256595.9,286047004.2,N
1523256615.8,286047001.6,N
1523256635.6,286047002.7,N
1523256655.4,286047004.1,N
1523256675.3,286047002.6,N
1523256695.1,286047002.5,N
1523256715.9,286047003.5,N
1523256735.7,286047004.3,N
1523256755.5,286047001.7,N
1523256775.4,286047001.8,N
1523256795.2,286047003.9,N
1523256815.1,286047004.0,N
1523256816.0,286047004.0,N
1523256835.8,286047003.9,N
1523256855.6,286047004.1,N
1523256875.5,286047003.7,N
1523256895.3,286047003.0,N
1523256915.1,286047005.6,N
1523256935.9,286047003.3,N
1523256955.7,286047001.3,N
1523256975.6,286047000.2,N
1523256995.4,286047002.2,N
1523257015.2,286047004.0,N
1523257035.1,286047003.2,N
1523257036.0,286047003.2,N
1523257055.8,286047003.4,N
1523257075.6,286047003.5,N
1523257095.5,286047004.1,Y
1523257115.3,286047000.8,P
1523257135.2,286046999.0,N
1523257155.9,286046997.1,N
1523257175.7,286046996.9,N
1523257195.6,286046997.8,N
